Hourly Data Report for October 05, 2017

All times are specified in Local Standard Time (LST). Add 1 hour to adjust for Daylight Saving Time where and when it is observed.

SUDBURY A
ONTARIO

46°37'32.000" N
80°47'52.000" W
348.40 m
6068153
71730
YSB

Download Data

Hourly Data (October 2017)
Hourly Data Report for October 5, 2017
Temp Definition
°C
Dew Point Temp Definition
°C
Rel Hum Definition
%
Wind Dir Definition
10's deg

Wind Spd Definition
km/h
Visibility Definition
km
Stn Press Definition
kPa
Hmdx Definition


Wind Chill Definition


Weather Definition


TIME
00:00 Legend Double Dagger 8.5 4.5 76 26 7 24.1 97.71     LegendNANA
01:00 Legend Double Dagger 6.5 4.5 87 25 5 24.1 97.71     Clear
02:00 Legend Double Dagger 8.4 5.5 82 25 9 24.1 97.72     LegendNANA
03:00 Legend Double Dagger 7.3 4.9 84 27 8 24.1 97.70     LegendNANA
04:00 Legend Double Dagger 6.6 5.2 90 24 10 24.1 97.70     Mainly Clear
05:00 Legend Double Dagger 5.7 4.8 94 22 13 24.1 97.67     LegendNANA
06:00 Legend Double Dagger 5.6 5.0 96 25 8 32.2 97.68     LegendNANA
07:00 Legend Double Dagger 6.8 6.3 96 23 10 32.2 97.69     Mostly Cloudy
08:00 Legend Double Dagger 9.1 7.6 90 23 15 32.2 97.64     LegendNANA
09:00 Legend Double Dagger 10.7 7.2 79 27 18 32.2 97.61     LegendNANA
10:00 Legend Double Dagger 11.4 6.9 74 25 21 32.2 97.56     Cloudy
11:00 Legend Double Dagger 12.3 6.5 68 27 24 32.2 97.52     LegendNANA
12:00 Legend Double Dagger 12.8 5.8 62 26 23 32.2 97.50     LegendNANA
13:00 Legend Double Dagger 13.4 6.7 63 26 19 32.2 97.43     Mostly Cloudy
14:00 Legend Double Dagger 14.1 6.4 60 25 17 32.2 97.37     LegendNANA
15:00 Legend Double Dagger 15.1 5.5 52 25 23 32.2 97.33     LegendNANA
16:00 Legend Double Dagger 14.9 5.2 52 25 19 32.2 97.35     Mostly Cloudy
17:00 Legend Double Dagger 14.2 5.1 54 26 14 32.2 97.36     LegendNANA
18:00 Legend Double Dagger 12.8 6.3 64 26 9 32.2 97.39     LegendNANA
19:00 Legend Double Dagger 12.7 5.6 62 26 12 24.1 97.47     Mostly Cloudy
20:00 Legend Double Dagger 11.3 5.6 68 26 13 24.1 97.48     LegendNANA
21:00 Legend Double Dagger 9.6 5.2 74 27 9 24.1 97.49     LegendNANA
22:00 Legend Double Dagger 8.8 5.1 77 27 10 24.1 97.50     Mainly Clear
23:00 Legend Double Dagger 8.1 5.1 81 27 12 24.1 97.51     LegendNANA

Notes on Data Quality.

Legend

  • E = Estimated
  • M = Missing
  • NA = Not Available
  • ‡ = Partner data that is not subject to review by the National Climate Archives
Date modified: